Year,Month,Day,Hour,Minute,Value (Times are PST for temperature in C)
2011,04,23,00,00,4.70
2011,04,23,00,01,4.70
2011,04,23,00,02,4.70
2011,04,23,00,03,4.70
2011,04,23,00,04,4.70
2011,04,23,00,05,4.70
2011,04,23,00,06,4.70
2011,04,23,00,07,4.70
2011,04,23,00,08,4.70
2011,04,23,00,09,4.70
2011,04,23,00,10,4.70
2011,04,23,00,11,4.70
2011,04,23,00,12,4.60
2011,04,23,00,13,4.60
2011,04,23,00,14,4.70
2011,04,23,00,15,4.70
2011,04,23,00,16,4.60
2011,04,23,00,17,4.60
2011,04,23,00,18,4.60
2011,04,23,00,19,4.60
2011,04,23,00,20,4.60
2011,04,23,00,21,4.60
2011,04,23,00,22,4.60
2011,04,23,00,23,4.60
2011,04,23,00,24,4.60
2011,04,23,00,25,4.60
2011,04,23,00,26,4.60
2011,04,23,00,27,4.60
2011,04,23,00,28,4.60
2011,04,23,00,29,4.60
2011,04,23,00,30,4.60
2011,04,23,00,31,4.60
2011,04,23,00,32,4.50
2011,04,23,00,33,4.50
2011,04,23,00,34,4.50
2011,04,23,00,35,4.60
2011,04,23,00,36,4.60
2011,04,23,00,37,4.60
2011,04,23,00,38,4.60
2011,04,23,00,39,4.60
2011,04,23,00,40,4.60
2011,04,23,00,41,4.60
2011,04,23,00,42,4.60
2011,04,23,00,43,4.60
2011,04,23,00,44,4.70
2011,04,23,00,45,4.70
2011,04,23,00,46,4.80
2011,04,23,00,47,4.90
2011,04,23,00,48,4.90
2011,04,23,00,49,4.90
2011,04,23,00,50,4.90
2011,04,23,00,51,4.90
2011,04,23,00,52,4.90
2011,04,23,00,53,4.90
2011,04,23,00,54,4.90
2011,04,23,00,55,4.90
2011,04,23,00,56,4.90
2011,04,23,00,57,4.90
2011,04,23,00,58,4.80
2011,04,23,00,59,4.80
2011,04,23,01,00,4.80
2011,04,23,01,01,4.80
2011,04,23,01,02,4.80
2011,04,23,01,03,4.80
2011,04,23,01,04,4.80
2011,04,23,01,05,4.80
2011,04,23,01,06,4.80
2011,04,23,01,07,4.90
2011,04,23,01,08,4.90
2011,04,23,01,09,4.90
2011,04,23,01,10,4.90
2011,04,23,01,11,4.90
2011,04,23,01,12,5.00
2011,04,23,01,13,5.10
2011,04,23,01,14,5.10
2011,04,23,01,15,5.10
2011,04,23,01,16,5.00
2011,04,23,01,17,4.90
2011,04,23,01,18,4.90
2011,04,23,01,19,4.90
2011,04,23,01,20,4.80
2011,04,23,01,21,4.80
2011,04,23,01,22,4.70
2011,04,23,01,23,4.70
2011,04,23,01,24,4.70
2011,04,23,01,25,4.70
2011,04,23,01,26,4.70
2011,04,23,01,27,4.70
2011,04,23,01,28,4.70
2011,04,23,01,29,4.60
2011,04,23,01,30,4.60
2011,04,23,01,31,4.60
2011,04,23,01,32,4.60
2011,04,23,01,33,4.60
2011,04,23,01,34,4.60
2011,04,23,01,35,4.60
2011,04,23,01,36,4.60
2011,04,23,01,37,4.60
2011,04,23,01,38,4.60
2011,04,23,01,39,4.60
2011,04,23,01,40,4.60
2011,04,23,01,41,4.60
2011,04,23,01,42,4.60
2011,04,23,01,43,4.60
2011,04,23,01,44,4.60
2011,04,23,01,45,4.60
2011,04,23,01,46,4.60
2011,04,23,01,47,4.60
2011,04,23,01,48,4.60
2011,04,23,01,49,4.60
2011,04,23,01,50,4.60
2011,04,23,01,51,4.60
2011,04,23,01,52,4.60
2011,04,23,01,53,4.60
2011,04,23,01,54,4.60
2011,04,23,01,55,4.60
2011,04,23,01,56,4.60
2011,04,23,01,57,4.60
2011,04,23,01,58,4.60
2011,04,23,01,59,4.60
2011,04,23,02,00,4.60
2011,04,23,02,01,4.50
2011,04,23,02,02,4.50
2011,04,23,02,03,4.50
2011,04,23,02,04,4.50
2011,04,23,02,05,4.50
2011,04,23,02,06,4.50
2011,04,23,02,07,4.40
2011,04,23,02,08,4.40
2011,04,23,02,09,4.40
2011,04,23,02,10,4.30
2011,04,23,02,11,4.30
2011,04,23,02,12,4.30
2011,04,23,02,13,4.20
2011,04,23,02,14,4.20
2011,04,23,02,15,4.20
2011,04,23,02,16,4.20
2011,04,23,02,17,4.10
2011,04,23,02,18,4.00
2011,04,23,02,19,4.00
2011,04,23,02,20,3.90
2011,04,23,02,21,3.90
2011,04,23,02,22,3.80
2011,04,23,02,23,3.80
2011,04,23,02,24,3.70
2011,04,23,02,25,3.70
2011,04,23,02,26,3.70
2011,04,23,02,27,3.60
2011,04,23,02,28,3.60
2011,04,23,02,29,3.60
2011,04,23,02,30,3.50
2011,04,23,02,31,3.50
2011,04,23,02,32,3.50
2011,04,23,02,33,3.40
2011,04,23,02,34,3.40
2011,04,23,02,35,3.40
2011,04,23,02,36,3.30
2011,04,23,02,37,3.30
2011,04,23,02,38,3.30
2011,04,23,02,39,3.30
2011,04,23,02,40,3.30
2011,04,23,02,41,3.30
2011,04,23,02,42,3.30
2011,04,23,02,43,3.30
2011,04,23,02,44,3.40
2011,04,23,02,45,3.40
2011,04,23,02,46,3.50
2011,04,23,02,47,3.50
2011,04,23,02,48,3.50
2011,04,23,02,49,3.60
2011,04,23,02,50,3.60
2011,04,23,02,51,3.60
2011,04,23,02,52,3.60
2011,04,23,02,53,3.60
2011,04,23,02,54,3.70
2011,04,23,02,55,3.70
2011,04,23,02,56,3.70
2011,04,23,02,57,3.70
2011,04,23,02,58,3.70
2011,04,23,02,59,3.70
2011,04,23,03,00,3.70
2011,04,23,03,01,3.70
2011,04,23,03,02,3.80
2011,04,23,03,03,3.80
2011,04,23,03,04,3.80
2011,04,23,03,05,3.80
2011,04,23,03,06,3.70
2011,04,23,03,07,3.70
2011,04,23,03,08,3.70
2011,04,23,03,09,3.70
2011,04,23,03,10,3.70
2011,04,23,03,11,3.70
2011,04,23,03,12,3.70
2011,04,23,03,13,3.70
2011,04,23,03,14,3.70
2011,04,23,03,15,3.60
2011,04,23,03,16,3.60
2011,04,23,03,17,3.60
2011,04,23,03,18,3.60
2011,04,23,03,19,3.50
2011,04,23,03,20,3.50
2011,04,23,03,21,3.40
2011,04,23,03,22,3.30
2011,04,23,03,23,3.30
2011,04,23,03,24,3.20
2011,04,23,03,25,3.20
2011,04,23,03,26,3.10
2011,04,23,03,27,3.10
2011,04,23,03,28,3.10
2011,04,23,03,29,3.10
2011,04,23,03,30,3.10
2011,04,23,03,31,3.10
2011,04,23,03,32,3.00
2011,04,23,03,33,3.00
2011,04,23,03,34,3.10
2011,04,23,03,35,3.10
2011,04,23,03,36,3.10
2011,04,23,03,37,3.10
2011,04,23,03,38,3.10
2011,04,23,03,39,3.10
2011,04,23,03,40,3.10
2011,04,23,03,41,3.10
2011,04,23,03,42,3.20
2011,04,23,03,43,3.20
2011,04,23,03,44,3.20
2011,04,23,03,45,3.20
2011,04,23,03,46,3.20
2011,04,23,03,47,3.30
2011,04,23,03,48,3.30
2011,04,23,03,49,3.20
2011,04,23,03,50,3.20
2011,04,23,03,51,3.20
2011,04,23,03,52,3.20
2011,04,23,03,53,3.20
2011,04,23,03,54,3.20
2011,04,23,03,55,3.20
2011,04,23,03,56,3.20
2011,04,23,03,57,3.30
2011,04,23,03,58,3.30
2011,04,23,03,59,3.30
2011,04,23,04,00,3.30
2011,04,23,04,01,3.30
2011,04,23,04,02,3.30
2011,04,23,04,03,3.40
2011,04,23,04,04,3.40
2011,04,23,04,05,3.50
2011,04,23,04,06,3.50
2011,04,23,04,07,3.60
2011,04,23,04,08,3.70
2011,04,23,04,09,3.70
2011,04,23,04,10,3.80
2011,04,23,04,11,3.80
2011,04,23,04,12,3.80
2011,04,23,04,13,3.80
2011,04,23,04,14,3.80
2011,04,23,04,15,3.90
2011,04,23,04,16,3.90
2011,04,23,04,17,3.90
2011,04,23,04,18,3.80
2011,04,23,04,19,3.80
2011,04,23,04,20,3.70
2011,04,23,04,21,3.70
2011,04,23,04,22,3.70
2011,04,23,04,23,3.60
2011,04,23,04,24,3.60
2011,04,23,04,25,3.70
2011,04,23,04,26,3.70
2011,04,23,04,27,3.80
2011,04,23,04,28,3.80
2011,04,23,04,29,3.90
2011,04,23,04,30,3.90
2011,04,23,04,31,3.90
2011,04,23,04,32,4.00
2011,04,23,04,33,4.00
2011,04,23,04,34,4.10
2011,04,23,04,35,4.10
2011,04,23,04,36,4.10
2011,04,23,04,37,4.20
2011,04,23,04,38,4.20
2011,04,23,04,39,4.20
2011,04,23,04,40,4.20
2011,04,23,04,41,4.20
2011,04,23,04,42,4.20
2011,04,23,04,43,4.20
2011,04,23,04,44,4.30
2011,04,23,04,45,4.30
2011,04,23,04,46,4.30
2011,04,23,04,47,4.30
2011,04,23,04,48,4.30
2011,04,23,04,49,4.30
2011,04,23,04,50,4.20
2011,04,23,04,51,4.20
2011,04,23,04,52,4.30
2011,04,23,04,53,4.30
2011,04,23,04,54,4.30
2011,04,23,04,55,4.30
2011,04,23,04,56,4.30
2011,04,23,04,57,4.40
2011,04,23,04,58,4.30
2011,04,23,04,59,4.30
2011,04,23,05,00,4.20
2011,04,23,05,01,4.10
2011,04,23,05,02,4.10
2011,04,23,05,03,4.10
2011,04,23,05,04,4.10
2011,04,23,05,05,4.00
2011,04,23,05,06,4.00
2011,04,23,05,07,4.00
2011,04,23,05,08,3.90
2011,04,23,05,09,3.80
2011,04,23,05,10,3.70
2011,04,23,05,11,3.60
2011,04,23,05,12,3.50
2011,04,23,05,13,3.40
2011,04,23,05,14,3.30
2011,04,23,05,15,3.30
2011,04,23,05,16,3.20
2011,04,23,05,17,3.10
2011,04,23,05,18,3.10
2011,04,23,05,19,3.10
2011,04,23,05,20,3.10
2011,04,23,05,21,3.00
2011,04,23,05,22,2.90
2011,04,23,05,23,2.90
2011,04,23,05,24,2.90
2011,04,23,05,25,2.90
2011,04,23,05,26,2.90
2011,04,23,05,27,2.90
2011,04,23,05,28,3.00
2011,04,23,05,29,3.10
2011,04,23,05,30,3.20
2011,04,23,05,31,3.30
2011,04,23,05,32,3.30
2011,04,23,05,33,3.40
2011,04,23,05,34,3.40
2011,04,23,05,35,3.50
2011,04,23,05,36,3.60
2011,04,23,05,37,3.60
2011,04,23,05,38,3.60
2011,04,23,05,39,3.70
2011,04,23,05,40,3.80
2011,04,23,05,41,3.90
2011,04,23,05,42,4.00
2011,04,23,05,43,4.00
2011,04,23,05,44,4.00
2011,04,23,05,45,4.00
2011,04,23,05,46,4.00
2011,04,23,05,47,4.00
2011,04,23,05,48,4.00
2011,04,23,05,49,4.00
2011,04,23,05,50,4.00
2011,04,23,05,51,4.00
2011,04,23,05,52,4.00
2011,04,23,05,53,4.00
2011,04,23,05,54,4.00
2011,04,23,05,55,4.00
2011,04,23,05,56,4.10
2011,04,23,05,57,4.10
2011,04,23,05,58,4.10
2011,04,23,05,59,4.10
2011,04,23,06,00,4.10
2011,04,23,06,01,4.20
2011,04,23,06,02,4.20
2011,04,23,06,03,4.20
2011,04,23,06,04,4.20
2011,04,23,06,05,4.20
2011,04,23,06,06,4.20
2011,04,23,06,07,4.30
2011,04,23,06,08,4.30
2011,04,23,06,09,4.30
2011,04,23,06,10,4.30
2011,04,23,06,11,4.30
2011,04,23,06,12,4.30
2011,04,23,06,13,4.30
2011,04,23,06,14,4.30
2011,04,23,06,15,4.30
2011,04,23,06,16,4.30
2011,04,23,06,17,4.20
2011,04,23,06,18,4.20
2011,04,23,06,19,4.20
2011,04,23,06,20,4.20
2011,04,23,06,21,4.20
2011,04,23,06,22,4.20
2011,04,23,06,23,4.20
2011,04,23,06,24,4.20
2011,04,23,06,25,4.20
2011,04,23,06,26,4.20
2011,04,23,06,27,4.20
2011,04,23,06,28,4.20
2011,04,23,06,29,4.30
2011,04,23,06,30,4.30
2011,04,23,06,31,4.30
2011,04,23,06,32,4.30
2011,04,23,06,33,4.30
2011,04,23,06,34,4.30
2011,04,23,06,35,4.30
2011,04,23,06,36,4.30
2011,04,23,06,37,4.30
2011,04,23,06,38,4.30
2011,04,23,06,39,4.30
2011,04,23,06,40,4.30
2011,04,23,06,41,4.30
2011,04,23,06,42,4.30
2011,04,23,06,43,4.30
2011,04,23,06,44,4.20
2011,04,23,06,45,4.20
2011,04,23,06,46,4.20
2011,04,23,06,47,4.20
2011,04,23,06,48,4.20
2011,04,23,06,49,4.20
2011,04,23,06,50,4.20
2011,04,23,06,51,4.20
2011,04,23,06,52,4.20
2011,04,23,06,53,4.20
2011,04,23,06,54,4.20
2011,04,23,06,55,4.10
2011,04,23,06,56,4.10
2011,04,23,06,57,4.00
2011,04,23,06,58,4.00
2011,04,23,06,59,4.00
2011,04,23,07,00,4.00
2011,04,23,07,01,4.00
2011,04,23,07,02,4.00
2011,04,23,07,03,4.00
2011,04,23,07,04,4.10
2011,04,23,07,05,4.10
2011,04,23,07,06,4.10
2011,04,23,07,07,4.20
2011,04,23,07,08,4.20
2011,04,23,07,09,4.20
2011,04,23,07,10,4.20
2011,04,23,07,11,4.20
2011,04,23,07,12,4.30
2011,04,23,07,13,4.30
2011,04,23,07,14,4.40
2011,04,23,07,15,4.40
2011,04,23,07,16,4.50
2011,04,23,07,17,4.50
2011,04,23,07,18,4.60
2011,04,23,07,19,4.60
2011,04,23,07,20,4.70
2011,04,23,07,21,4.80
2011,04,23,07,22,4.90
2011,04,23,07,23,4.90
2011,04,23,07,24,5.00
2011,04,23,07,25,5.10
2011,04,23,07,26,5.10
2011,04,23,07,27,5.20
2011,04,23,07,28,5.30
2011,04,23,07,29,5.30
2011,04,23,07,30,5.30
2011,04,23,07,31,5.20
2011,04,23,07,32,5.20
2011,04,23,07,33,5.30
2011,04,23,07,34,5.30
2011,04,23,07,35,5.30
2011,04,23,07,36,5.40
2011,04,23,07,37,5.40
2011,04,23,07,38,5.50
2011,04,23,07,39,5.50
2011,04,23,07,40,5.60
2011,04,23,07,41,5.50
2011,04,23,07,42,5.50
2011,04,23,07,43,5.60
2011,04,23,07,44,5.50
2011,04,23,07,45,5.50
2011,04,23,07,46,5.40
2011,04,23,07,47,5.40
2011,04,23,07,48,5.40
2011,04,23,07,49,5.40
2011,04,23,07,50,5.50
2011,04,23,07,51,5.50
2011,04,23,07,52,5.60
2011,04,23,07,53,5.70
2011,04,23,07,54,5.70
2011,04,23,07,55,5.90
2011,04,23,07,56,6.00
2011,04,23,07,57,6.10
2011,04,23,07,58,6.20
2011,04,23,07,59,6.30
2011,04,23,08,00,6.40
2011,04,23,08,01,6.50
2011,04,23,08,02,6.60
2011,04,23,08,03,6.70
2011,04,23,08,04,6.80
2011,04,23,08,05,6.90
2011,04,23,08,06,7.00
2011,04,23,08,07,7.10
2011,04,23,08,08,7.20
2011,04,23,08,09,7.30
2011,04,23,08,10,7.40
2011,04,23,08,11,7.50
2011,04,23,08,12,7.60
2011,04,23,08,13,7.70
2011,04,23,08,14,7.70
2011,04,23,08,15,7.80
2011,04,23,08,16,7.80
2011,04,23,08,17,7.90
2011,04,23,08,18,7.90
2011,04,23,08,19,8.00
2011,04,23,08,20,8.10
2011,04,23,08,21,8.20
2011,04,23,08,22,8.20
2011,04,23,08,23,8.30
2011,04,23,08,24,8.30
2011,04,23,08,25,8.40
2011,04,23,08,26,8.50
2011,04,23,08,27,8.50
2011,04,23,08,28,8.60
2011,04,23,08,29,8.70
2011,04,23,08,30,8.70
2011,04,23,08,31,8.80
2011,04,23,08,32,8.90
2011,04,23,08,33,8.90
2011,04,23,08,34,9.00
2011,04,23,08,35,9.10
2011,04,23,08,36,9.10
2011,04,23,08,37,9.00
2011,04,23,08,38,9.00
2011,04,23,08,39,9.00
2011,04,23,08,40,9.00
2011,04,23,08,41,9.00
2011,04,23,08,42,9.00
2011,04,23,08,43,9.10
2011,04,23,08,44,9.10
2011,04,23,08,45,9.20
2011,04,23,08,46,9.20
2011,04,23,08,47,9.30
2011,04,23,08,48,9.30
2011,04,23,08,49,9.30
2011,04,23,08,50,9.30
2011,04,23,08,51,9.30
2011,04,23,08,52,9.40
2011,04,23,08,53,9.40
2011,04,23,08,54,9.40
2011,04,23,08,55,9.40
2011,04,23,08,56,9.40
2011,04,23,08,57,9.50
2011,04,23,08,58,9.60
2011,04,23,08,59,9.70
2011,04,23,09,00,9.70
2011,04,23,09,01,9.70
2011,04,23,09,02,9.70
2011,04,23,09,03,9.70
2011,04,23,09,04,9.70
2011,04,23,09,05,9.80
2011,04,23,09,06,9.90
2011,04,23,09,07,10.00
2011,04,23,09,08,10.10
2011,04,23,09,09,10.10
2011,04,23,09,10,10.20
2011,04,23,09,11,10.40
2011,04,23,09,12,10.50
2011,04,23,09,13,10.60
2011,04,23,09,14,10.60
2011,04,23,09,15,10.70
2011,04,23,09,16,10.80
2011,04,23,09,17,10.90
2011,04,23,09,18,11.00
2011,04,23,09,19,11.10
2011,04,23,09,20,11.10
2011,04,23,09,21,11.10
2011,04,23,09,22,11.10
2011,04,23,09,23,11.10
2011,04,23,09,24,11.00
2011,04,23,09,25,10.90
2011,04,23,09,26,10.90
2011,04,23,09,27,10.90
2011,04,23,09,28,10.90
2011,04,23,09,29,11.00
2011,04,23,09,30,11.10
2011,04,23,09,31,11.10
2011,04,23,09,32,11.10
2011,04,23,09,33,11.20
2011,04,23,09,34,11.20
2011,04,23,09,35,11.20
2011,04,23,09,36,11.20
2011,04,23,09,37,11.30
2011,04,23,09,38,11.30
2011,04,23,09,39,11.30
2011,04,23,09,40,11.40
2011,04,23,09,41,11.50
2011,04,23,09,42,11.60
2011,04,23,09,43,11.60
2011,04,23,09,44,11.60
2011,04,23,09,45,11.70
2011,04,23,09,46,11.70
2011,04,23,09,47,11.60
2011,04,23,09,48,11.50
2011,04,23,09,49,11.40
2011,04,23,09,50,11.40
2011,04,23,09,51,11.30
2011,04,23,09,52,11.20
2011,04,23,09,53,11.20
2011,04,23,09,54,11.20
2011,04,23,09,55,11.20
2011,04,23,09,56,11.30
2011,04,23,09,57,11.40
2011,04,23,09,58,11.50
2011,04,23,09,59,11.50
2011,04,23,10,00,11.40
2011,04,23,10,01,11.40
2011,04,23,10,02,11.50
2011,04,23,10,03,11.60
2011,04,23,10,04,11.60
2011,04,23,10,05,11.70
2011,04,23,10,06,11.80
2011,04,23,10,07,11.70
2011,04,23,10,08,11.50
2011,04,23,10,09,11.40
2011,04,23,10,10,11.40
2011,04,23,10,11,11.40
2011,04,23,10,12,11.30
2011,04,23,10,13,11.30
2011,04,23,10,14,11.40
2011,04,23,10,15,11.30
2011,04,23,10,16,11.30
2011,04,23,10,17,11.30
2011,04,23,10,18,11.40
2011,04,23,10,19,11.50
2011,04,23,10,20,11.60
2011,04,23,10,21,11.60
2011,04,23,10,22,11.60
2011,04,23,10,23,11.60
2011,04,23,10,24,11.60
2011,04,23,10,25,11.70
2011,04,23,10,26,11.70
2011,04,23,10,27,11.80
2011,04,23,10,28,11.90
2011,04,23,10,29,12.00
2011,04,23,10,30,12.10
2011,04,23,10,31,12.20
2011,04,23,10,32,12.30
2011,04,23,10,33,12.30
2011,04,23,10,34,12.20
2011,04,23,10,35,12.20
2011,04,23,10,36,12.00
2011,04,23,10,37,11.90
2011,04,23,10,38,11.80
2011,04,23,10,39,12.00
2011,04,23,10,40,12.00
2011,04,23,10,41,12.20
2011,04,23,10,42,12.30
2011,04,23,10,43,12.30
2011,04,23,10,44,12.30
2011,04,23,10,45,12.30
2011,04,23,10,46,12.30
2011,04,23,10,47,12.30
2011,04,23,10,48,12.30
2011,04,23,10,49,12.30
2011,04,23,10,50,12.40
2011,04,23,10,51,12.50
2011,04,23,10,52,12.50
2011,04,23,10,53,12.50
2011,04,23,10,54,12.50
2011,04,23,10,55,12.40
2011,04,23,10,56,12.40
2011,04,23,10,57,12.40
2011,04,23,10,58,12.50
2011,04,23,10,59,12.50
2011,04,23,11,00,12.50
2011,04,23,11,01,12.40
2011,04,23,11,02,12.40
2011,04,23,11,03,12.40
2011,04,23,11,04,12.40
2011,04,23,11,05,12.40
2011,04,23,11,06,12.40
2011,04,23,11,07,12.40
2011,04,23,11,08,12.50
2011,04,23,11,09,12.50
2011,04,23,11,10,12.70
2011,04,23,11,11,12.80
2011,04,23,11,12,12.80
2011,04,23,11,13,12.70
2011,04,23,11,14,12.70
2011,04,23,11,15,12.70
2011,04,23,11,16,12.70
2011,04,23,11,17,12.70
2011,04,23,11,18,12.70
2011,04,23,11,19,12.60
2011,04,23,11,20,12.60
2011,04,23,11,21,12.50
2011,04,23,11,22,12.70
2011,04,23,11,23,12.80
2011,04,23,11,24,12.80
2011,04,23,11,25,12.80
2011,04,23,11,26,12.80
2011,04,23,11,27,12.80
2011,04,23,11,28,12.80
2011,04,23,11,29,12.80
2011,04,23,11,30,12.90
2011,04,23,11,31,13.00
2011,04,23,11,32,13.00
2011,04,23,11,33,13.00
2011,04,23,11,34,13.00
2011,04,23,11,35,13.10
2011,04,23,11,36,13.30
2011,04,23,11,37,13.30
2011,04,23,11,38,13.50
2011,04,23,11,39,13.60
2011,04,23,11,40,13.50
2011,04,23,11,41,13.40
2011,04,23,11,42,13.40
2011,04,23,11,43,13.50
2011,04,23,11,44,13.60
2011,04,23,11,45,13.50
2011,04,23,11,46,13.50
2011,04,23,11,47,13.50
2011,04,23,11,48,13.60
2011,04,23,11,49,13.70
2011,04,23,11,50,13.70
2011,04,23,11,51,13.60
2011,04,23,11,52,13.60
2011,04,23,11,53,13.60
2011,04,23,11,54,13.70
2011,04,23,11,55,13.70
2011,04,23,11,56,13.80
2011,04,23,11,57,13.90
2011,04,23,11,58,13.90
2011,04,23,11,59,14.10
2011,04,23,12,00,14.20
2011,04,23,12,01,14.20
2011,04,23,12,02,14.20
2011,04,23,12,03,14.20
2011,04,23,12,04,14.20
2011,04,23,12,05,14.10
2011,04,23,12,06,14.00
2011,04,23,12,07,13.90
2011,04,23,12,08,13.90
2011,04,23,12,09,14.00
2011,04,23,12,10,14.00
2011,04,23,12,11,14.00
2011,04,23,12,12,14.00
2011,04,23,12,13,13.90
2011,04,23,12,14,13.90
2011,04,23,12,15,14.00
2011,04,23,12,16,13.90
2011,04,23,12,17,13.90
2011,04,23,12,18,13.90
2011,04,23,12,19,14.00
2011,04,23,12,20,13.90
2011,04,23,12,21,13.90
2011,04,23,12,22,14.00
2011,04,23,12,23,14.10
2011,04,23,12,24,14.10
2011,04,23,12,25,14.10
2011,04,23,12,26,14.20
2011,04,23,12,27,14.30
2011,04,23,12,28,14.30
2011,04,23,12,29,14.40
2011,04,23,12,30,14.40
2011,04,23,12,31,14.30
2011,04,23,12,32,14.40
2011,04,23,12,33,14.40
2011,04,23,12,34,14.30
2011,04,23,12,35,14.20
2011,04,23,12,36,14.40
2011,04,23,12,37,14.50
2011,04,23,12,38,14.60
2011,04,23,12,39,14.70
2011,04,23,12,40,14.70
2011,04,23,12,41,14.70
2011,04,23,12,42,14.60
2011,04,23,12,43,14.50
2011,04,23,12,44,14.40
2011,04,23,12,45,14.30
2011,04,23,12,46,14.20
2011,04,23,12,47,14.20
2011,04,23,12,48,14.20
2011,04,23,12,49,14.20
2011,04,23,12,50,14.30
2011,04,23,12,51,14.30
2011,04,23,12,52,14.30
2011,04,23,12,53,14.30
2011,04,23,12,54,14.40
2011,04,23,12,55,14.30
2011,04,23,12,56,14.30
2011,04,23,12,57,14.50
2011,04,23,12,58,14.60
2011,04,23,12,59,14.70
2011,04,23,13,00,14.80
2011,04,23,13,01,14.70
2011,04,23,13,02,14.60
2011,04,23,13,03,14.50
2011,04,23,13,04,14.70
2011,04,23,13,05,14.90
2011,04,23,13,06,15.00
2011,04,23,13,07,15.10
2011,04,23,13,08,15.10
2011,04,23,13,09,15.00
2011,04,23,13,10,14.70
2011,04,23,13,11,14.60
2011,04,23,13,12,14.60
2011,04,23,13,13,14.60
2011,04,23,13,14,14.40
2011,04,23,13,15,14.40
2011,04,23,13,16,14.50
2011,04,23,13,17,14.60
2011,04,23,13,18,14.60
2011,04,23,13,19,14.60
2011,04,23,13,20,14.60
2011,04,23,13,21,14.80
2011,04,23,13,22,14.90
2011,04,23,13,23,14.90
2011,04,23,13,24,14.90
2011,04,23,13,25,14.90
2011,04,23,13,26,14.80
2011,04,23,13,27,14.90
2011,04,23,13,28,14.90
2011,04,23,13,29,14.80
2011,04,23,13,30,14.70
2011,04,23,13,31,14.70
2011,04,23,13,32,14.70
2011,04,23,13,33,14.60
2011,04,23,13,34,14.50
2011,04,23,13,35,14.50
2011,04,23,13,36,14.50
2011,04,23,13,37,14.60
2011,04,23,13,38,14.70
2011,04,23,13,39,14.80
2011,04,23,13,40,14.80
2011,04,23,13,41,14.80
2011,04,23,13,42,14.70
2011,04,23,13,43,14.60
2011,04,23,13,44,14.50
2011,04,23,13,45,14.40
2011,04,23,13,46,14.40
2011,04,23,13,47,14.50
2011,04,23,13,48,14.60
2011,04,23,13,49,14.90
2011,04,23,13,50,15.10
2011,04,23,13,51,15.20
2011,04,23,13,52,15.10
2011,04,23,13,53,15.00
2011,04,23,13,54,15.00
2011,04,23,13,55,14.90
2011,04,23,13,56,14.80
2011,04,23,13,57,14.80
2011,04,23,13,58,14.80
2011,04,23,13,59,14.70
2011,04,23,14,00,14.70
2011,04,23,14,01,14.50
2011,04,23,14,02,14.40
2011,04,23,14,03,14.30
2011,04,23,14,04,14.30
2011,04,23,14,05,14.50
2011,04,23,14,06,14.40
2011,04,23,14,07,14.40
2011,04,23,14,08,14.40
2011,04,23,14,09,14.40
2011,04,23,14,10,14.40
2011,04,23,14,11,14.20
2011,04,23,14,12,14.20
2011,04,23,14,13,14.10
2011,04,23,14,14,14.10
2011,04,23,14,15,14.10
2011,04,23,14,16,14.00
2011,04,23,14,17,14.20
2011,04,23,14,18,14.30
2011,04,23,14,19,14.30
2011,04,23,14,20,14.30
2011,04,23,14,21,14.20
2011,04,23,14,22,14.30
2011,04,23,14,23,14.40
2011,04,23,14,24,14.40
2011,04,23,14,25,14.30
2011,04,23,14,26,14.20
2011,04,23,14,27,14.20
2011,04,23,14,28,14.20
2011,04,23,14,29,14.20
2011,04,23,14,30,14.20
2011,04,23,14,31,14.20
2011,04,23,14,32,14.20
2011,04,23,14,33,14.20
2011,04,23,14,34,14.30
2011,04,23,14,35,14.30
2011,04,23,14,36,14.20
2011,04,23,14,37,14.20
2011,04,23,14,38,14.30
2011,04,23,14,39,14.40
2011,04,23,14,40,14.50
2011,04,23,14,41,14.30
2011,04,23,14,42,14.20
2011,04,23,14,43,14.10
2011,04,23,14,44,14.10
2011,04,23,14,45,14.10
2011,04,23,14,46,14.20
2011,04,23,14,47,14.20
2011,04,23,14,48,14.20
2011,04,23,14,49,14.30
2011,04,23,14,50,14.30
2011,04,23,14,51,14.40
2011,04,23,14,52,14.30
2011,04,23,14,53,14.30
2011,04,23,14,54,14.30
2011,04,23,14,55,14.40
2011,04,23,14,56,14.40
2011,04,23,14,57,14.40
2011,04,23,14,58,14.30
2011,04,23,14,59,14.20
2011,04,23,15,00,14.20
2011,04,23,15,01,14.20
2011,04,23,15,02,14.20
2011,04,23,15,03,14.30
2011,04,23,15,04,14.40
2011,04,23,15,05,14.20
2011,04,23,15,06,14.20
2011,04,23,15,07,14.30
2011,04,23,15,08,14.30
2011,04,23,15,09,14.20
2011,04,23,15,10,14.20
2011,04,23,15,11,14.20
2011,04,23,15,12,14.20
2011,04,23,15,13,14.40
2011,04,23,15,14,14.50
2011,04,23,15,15,14.50
2011,04,23,15,16,14.50
2011,04,23,15,17,14.60
2011,04,23,15,18,14.60
2011,04,23,15,19,14.70
2011,04,23,15,20,14.50
2011,04,23,15,21,14.50
2011,04,23,15,22,14.50
2011,04,23,15,23,14.40
2011,04,23,15,24,14.30
2011,04,23,15,25,14.20
2011,04,23,15,26,14.20
2011,04,23,15,27,14.20
2011,04,23,15,28,14.20
2011,04,23,15,29,14.20
2011,04,23,15,30,14.20
2011,04,23,15,31,14.20
2011,04,23,15,32,14.30
2011,04,23,15,33,14.50
2011,04,23,15,34,14.50
2011,04,23,15,35,14.50
2011,04,23,15,36,14.60
2011,04,23,15,37,14.50
2011,04,23,15,38,14.40
2011,04,23,15,39,14.40
2011,04,23,15,40,14.40
2011,04,23,15,41,14.40
2011,04,23,15,42,14.40
2011,04,23,15,43,14.40
2011,04,23,15,44,14.50
2011,04,23,15,45,14.50
2011,04,23,15,46,14.50
2011,04,23,15,47,14.50
2011,04,23,15,48,14.50
2011,04,23,15,49,14.50
2011,04,23,15,50,14.50
2011,04,23,15,51,14.40
2011,04,23,15,52,14.40
2011,04,23,15,53,14.50
2011,04,23,15,54,14.60
2011,04,23,15,55,14.60
2011,04,23,15,56,14.70
2011,04,23,15,57,14.80
2011,04,23,15,58,14.90
2011,04,23,15,59,15.10
2011,04,23,16,00,15.10
2011,04,23,16,01,15.00
2011,04,23,16,02,15.00
2011,04,23,16,03,15.00
2011,04,23,16,04,15.10
2011,04,23,16,05,15.20
2011,04,23,16,06,15.30
2011,04,23,16,07,15.20
2011,04,23,16,08,15.10
2011,04,23,16,09,14.90
2011,04,23,16,10,14.80
2011,04,23,16,11,14.90
2011,04,23,16,12,14.90
2011,04,23,16,13,14.90
2011,04,23,16,14,14.80
2011,04,23,16,15,14.80
2011,04,23,16,16,14.80
2011,04,23,16,17,14.90
2011,04,23,16,18,14.90
2011,04,23,16,19,15.00
2011,04,23,16,20,14.90
2011,04,23,16,21,14.80
2011,04,23,16,22,14.80
2011,04,23,16,23,14.80
2011,04,23,16,24,14.80
2011,04,23,16,25,14.80
2011,04,23,16,26,14.90
2011,04,23,16,27,14.90
2011,04,23,16,28,14.90
2011,04,23,16,29,14.80
2011,04,23,16,30,14.80
2011,04,23,16,31,14.80
2011,04,23,16,32,14.90
2011,04,23,16,33,14.90
2011,04,23,16,34,15.00
2011,04,23,16,35,15.00
2011,04,23,16,36,15.00
2011,04,23,16,37,14.90
2011,04,23,16,38,14.80
2011,04,23,16,39,14.80
2011,04,23,16,40,14.80
2011,04,23,16,41,14.80
2011,04,23,16,42,14.80
2011,04,23,16,43,14.80
2011,04,23,16,44,14.80
2011,04,23,16,45,14.70
2011,04,23,16,46,14.80
2011,04,23,16,47,14.80
2011,04,23,16,48,15.00
2011,04,23,16,49,15.10
2011,04,23,16,50,15.30
2011,04,23,16,51,15.30
2011,04,23,16,52,15.20
2011,04,23,16,53,15.20
2011,04,23,16,54,15.20
2011,04,23,16,55,15.10
2011,04,23,16,56,15.10
2011,04,23,16,57,15.10
2011,04,23,16,58,15.10
2011,04,23,16,59,15.30
2011,04,23,17,00,15.20
2011,04,23,17,01,15.10
2011,04,23,17,02,15.00
2011,04,23,17,03,15.00
2011,04,23,17,04,15.10
2011,04,23,17,05,15.10
2011,04,23,17,06,15.00
2011,04,23,17,07,14.90
2011,04,23,17,08,14.80
2011,04,23,17,09,14.80
2011,04,23,17,10,14.80
2011,04,23,17,11,14.80
2011,04,23,17,12,14.90
2011,04,23,17,13,15.00
2011,04,23,17,14,15.00
2011,04,23,17,15,14.90
2011,04,23,17,16,14.90
2011,04,23,17,17,15.00
2011,04,23,17,18,15.10
2011,04,23,17,19,15.20
2011,04,23,17,20,15.30
2011,04,23,17,21,15.30
2011,04,23,17,22,15.40
2011,04,23,17,23,15.50
2011,04,23,17,24,15.50
2011,04,23,17,25,15.60
2011,04,23,17,26,15.70
2011,04,23,17,27,15.60
2011,04,23,17,28,15.60
2011,04,23,17,29,15.50
2011,04,23,17,30,15.50
2011,04,23,17,31,15.40
2011,04,23,17,32,15.40
2011,04,23,17,33,15.40
2011,04,23,17,34,15.40
2011,04,23,17,35,15.40
2011,04,23,17,36,15.50
2011,04,23,17,37,15.50
2011,04,23,17,38,15.50
2011,04,23,17,39,15.40
2011,04,23,17,40,15.40
2011,04,23,17,41,15.40
2011,04,23,17,42,15.50
2011,04,23,17,43,15.50